DELTA 1 DEB, 12274

Orbit data source: Space-Track

DELTA 1 DEB, 12274 is space debris in SSO originally from a launch on Thu, 29 Jul 1976 UTC launched from the Air Force Western Test Range (AFWTR). Debris objects in space refer to the collection of defunct objects orbiting the Earth. Examples of debris include non-operational satellites, rocket bodies, and fragments generated from explosions, collisions, or faulty payload assembly.

Loading next visibility...
Identifier
12274, 1976-077DF
Orbit
SSO
Country
Flag of USUS
Related business
Manufacturer
Unknown
Mission
Spacecraft
Bus & Motor
Unknown
Mass
Unknown
Launch date (UTC)
1976-07-29 (50 years ago)
Launch vehicle
Unknown
Launch site
Air Force Western Test Range (AFWTR)
Object type
Payload
Rocket body
Debris
Shape & HBR
Unknown shape, 0.1 m
Radar Cross Section
Small (<0.1 m²)

Expand to show TLE details & history
Last TLE update: 9 hours ago

TLE from 9 hours ago
0 DELTA 1 DEB
1 12274U 76077DF  26127.86287419  .00000008  00000-0  47728-3 0  9995
2 12274 102.3865  92.5033 0106654  87.2348 302.2597 12.22295731 19012
Epoch: 2026-05-07T20:42Z
TLE epoch observation values (Epoch: 2026-05-07T20:42:32.330Z)
Latitude
27.77397°
Longitude
-90.44371°
Altitude
1,540.948 km
Speed
7.118 km/s
True Right ascension
05h 43m 34s
True Declination
27° 38' 47"
Sunlit
Object was in daylight at epoch
Visualization orbit readout
Latitude
Unknown
Longitude
Unknown
Altitude
Unknown
Speed
Unknown
Apparent Right ascension
Unknown
Apparent Declination
Unknown
Sunlit
N/A
Visualization observer readout
Local Sidereal Time
13:27:02
Azimuth
Unknown
Elevation
Unknown
Doppler factor
Unknown
Orbital elements
Apogee altitude
1,665.057 km
Perigee altitude
1,495.3 km
Semi-major axis
7,958.316 km
Eccentricity
0.01067
Inclination
102.3865°
RAAN
92.5033°
Arg. of periapsis
87.2348°
True anomaly
301.21884°
Mean anomaly
302.2597°
Eccentric anomaly
301.74001°
Mean motion
3.05711 °/min
Orbital period
117.76 mins
BSTAR
0.00047728
Loading maneuver chart data...
Computing Atmospheric mass density...
Loading historical data...
Loading historical data...
Loading historical data...
Loading historical data...
Loading historical data...
Loading historical data...
Loading historical data...

Documentation

Showing up to 5 results
|